owner,sensor,date,latitude,longitude,vertical_datum,wind_speed,wind_to_direction,wind_speed_of_gust,qcFlag 
TCOON,ioos:station:TCOON:003:1,2009-05-01T00:00:00Z,26.8015,-97.4706,0.0,10.1,139.0,12.2,'11111222,11111222,11111222' 
TCOON,ioos:station:TCOON:003:1,2009-05-01T02:00:00Z,26.8015,-97.4706,0.0,10.0,149.0,11.8,'11111222,11111222,11111222' 
TCOON,ioos:station:TCOON:003:1,2009-05-01T03:00:00Z,26.8015,-97.4706,0.0,11.3,146.0,13.4,'11111222,11111222,11111222' 
TCOON,ioos:station:TCOON:003:1,2009-05-01T04:00:00Z,26.8015,-97.4706,0.0,11.1,157.0,13.1,'11111222,11111222,11111222' 
TCOON,ioos:station:TCOON:003:1,2009-05-01T05:00:00Z,26.8015,-97.4706,0.0,11.7,161.0,14.6,'11111222,11111222,11111222' 
TCOON,ioos:station:TCOON:003:1,2009-05-01T06:00:00Z,26.8015,-97.4706,0.0,10.7,165.0,12.9,'11111222,11111222,11111222' 
TCOON,ioos:station:TCOON:003:1,2009-05-01T07:00:00Z,26.8015,-97.4706,0.0,9.3,158.0,11.0,'11111222,11111222,11111222' 
TCOON,ioos:station:TCOON:003:1,2009-05-01T08:00:00Z,26.8015,-97.4706,0.0,9.5,161.0,11.5,'11111222,11111222,11111222' 
TCOON,ioos:station:TCOON:003:1,2009-05-01T09:00:00Z,26.8015,-97.4706,0.0,7.4,154.0,8.9,'11111222,11111222,11111222' 
TCOON,ioos:station:TCOON:003:1,2009-05-01T10:00:00Z,26.8015,-97.4706,0.0,9.3,153.0,11.7,'11111222,11111222,11111222' 
TCOON,ioos:station:TCOON:003:1,2009-05-01T11:00:00Z,26.8015,-97.4706,0.0,8.9,156.0,10.1,'11111222,11111222,11111222' 
TCOON,ioos:station:TCOON:003:1,2009-05-01T12:00:00Z,26.8015,-97.4706,0.0,8.9,158.0,10.7,'11111222,11111222,11111222' 
TCOON,ioos:station:TCOON:003:1,2009-05-01T13:00:00Z,26.8015,-97.4706,0.0,8.9,159.0,10.1,'11111222,11111222,11111222' 
TCOON,ioos:station:TCOON:003:1,2009-05-01T14:00:00Z,26.8015,-97.4706,0.0,9.4,162.0,10.7,'11111222,11111222,11111222' 
TCOON,ioos:station:TCOON:003:1,2009-05-01T15:00:00Z,26.8015,-97.4706,0.0,9.7,167.0,11.1,'11111222,11111222,11111222' 
TCOON,ioos:station:TCOON:003:1,2009-05-01T16:00:00Z,26.8015,-97.4706,0.0,10.4,162.0,11.5,'11111222,11111222,11111222' 
TCOON,ioos:station:TCOON:003:1,2009-05-01T17:00:00Z,26.8015,-97.4706,0.0,10.1,161.0,12.1,'11111222,11111222,11111222' 
TCOON,ioos:station:TCOON:003:1,2009-05-01T18:00:00Z,26.8015,-97.4706,0.0,11.5,165.0,12.9,'11111222,11111222,11111222' 
TCOON,ioos:station:TCOON:003:1,2009-05-01T19:00:00Z,26.8015,-97.4706,0.0,11.2,163.0,13.1,'11111222,11111222,11111222' 
TCOON,ioos:station:TCOON:003:1,2009-05-01T20:00:00Z,26.8015,-97.4706,0.0,9.2,157.0,11.9,'11111222,11111222,11111222' 
TCOON,ioos:station:TCOON:003:1,2009-05-01T21:00:00Z,26.8015,-97.4706,0.0,11.2,163.0,13.4,'11111222,11111222,11111222' 
TCOON,ioos:station:TCOON:003:1,2009-05-01T22:00:00Z,26.8015,-97.4706,0.0,10.6,151.0,12.4,'11111222,11111222,11111222' 
TCOON,ioos:station:TCOON:003:1,2009-05-01T23:00:00Z,26.8015,-97.4706,0.0,10.7,157.0,12.6,'11111222,11111222,11111222' 
TCOON,ioos:station:TCOON:003:1,2009-05-02T00:00:00Z,26.8015,-97.4706,0.0,11.4,159.0,13.3,'11111222,11111222,11111222' 
TCOON,ioos:station:TCOON:003:1,2009-05-02T01:00:00Z,26.8015,-97.4706,0.0,10.8,155.0,11.8,'11111222,11111222,11111222' 
TCOON,ioos:station:TCOON:003:1,2009-05-02T02:00:00Z,26.8015,-97.4706,0.0,11.4,157.0,12.9,'11111222,11111222,11111222' 
TCOON,ioos:station:TCOON:003:1,2009-05-02T03:00:00Z,26.8015,-97.4706,0.0,12.2,161.0,13.8,'11111222,11111222,11111222' 
TCOON,ioos:station:TCOON:003:1,2009-05-02T04:00:00Z,26.8015,-97.4706,0.0,12.3,163.0,14.6,'11111222,11111222,11111222' 
TCOON,ioos:station:TCOON:003:1,2009-05-02T05:00:00Z,26.8015,-97.4706,0.0,12.7,159.0,14.6,'11111222,11111222,11111222' 
TCOON,ioos:station:TCOON:003:1,2009-05-02T06:00:00Z,26.8015,-97.4706,0.0,12.3,167.0,13.7,'11111222,11111222,11111222' 
TCOON,ioos:station:TCOON:003:1,2009-05-02T07:00:00Z,26.8015,-97.4706,0.0,12.5,176.0,14.2,'11111222,11111222,11111222' 
TCOON,ioos:station:TCOON:003:1,2009-05-02T08:00:00Z,26.8015,-97.4706,0.0,10.6,178.0,12.4,'11111222,11111222,11111222' 
TCOON,ioos:station:TCOON:003:1,2009-05-02T09:00:00Z,26.8015,-97.4706,0.0,10.3,181.0,12.4,'11111222,11111222,11111222' 
TCOON,ioos:station:TCOON:003:1,2009-05-02T10:00:00Z,26.8015,-97.4706,0.0,10.9,173.0,12.5,'11111222,11111222,11111222' 
TCOON,ioos:station:TCOON:003:1,2009-05-02T11:00:00Z,26.8015,-97.4706,0.0,10.8,165.0,12.3,'11111222,11111222,11111222' 
TCOON,ioos:station:TCOON:003:1,2009-05-02T12:00:00Z,26.8015,-97.4706,0.0,10.5,161.0,12.1,'11111222,11111222,11111222' 
TCOON,ioos:station:TCOON:003:1,2009-05-02T13:00:00Z,26.8015,-97.4706,0.0,11.4,165.0,13.7,'11111222,11111222,11111222' 
TCOON,ioos:station:TCOON:003:1,2009-05-02T14:00:00Z,26.8015,-97.4706,0.0,10.9,162.0,12.2,'11111222,11111222,11111222' 
TCOON,ioos:station:TCOON:003:1,2009-05-02T15:00:00Z,26.8015,-97.4706,0.0,12.5,167.0,14.9,'11111222,11111222,11111222' 
TCOON,ioos:station:TCOON:003:1,2009-05-02T16:00:00Z,26.8015,-97.4706,0.0,12.6,164.0,15.7,'11111222,11111222,11111222' 
TCOON,ioos:station:TCOON:003:1,2009-05-02T17:00:00Z,26.8015,-97.4706,0.0,13.4,165.0,16.1,'11111222,11111222,11111222' 
TCOON,ioos:station:TCOON:003:1,2009-05-02T18:00:00Z,26.8015,-97.4706,0.0,13.9,161.0,16.8,'11111222,11111222,11111222' 
TCOON,ioos:station:TCOON:003:1,2009-05-02T19:00:00Z,26.8015,-97.4706,0.0,14.2,162.0,16.6,'11111222,11111222,11111222' 
TCOON,ioos:station:TCOON:003:1,2009-05-02T20:00:00Z,26.8015,-97.4706,0.0,13.3,162.0,15.9,'11111222,11111222,11111222' 
TCOON,ioos:station:TCOON:003:1,2009-05-02T21:00:00Z,26.8015,-97.4706,0.0,14.0,161.0,16.4,'11111222,11111222,11111222' 
TCOON,ioos:station:TCOON:003:1,2009-05-02T22:00:00Z,26.8015,-97.4706,0.0,12.3,163.0,14.2,'11111222,11111222,11111222' 
TCOON,ioos:station:TCOON:003:1,2009-05-02T23:00:00Z,26.8015,-97.4706,0.0,11.1,157.0,12.9,'11111222,11111222,11111222' 
TCOON,ioos:station:TCOON:003:1,2009-05-03T00:00:00Z,26.8015,-97.4706,0.0,10.5,155.0,11.9,'11111222,11111222,11111222' 
TCOON,ioos:station:TCOON:003:1,2009-05-03T01:00:00Z,26.8015,-97.4706,0.0,9.6,155.0,12.0,'11111222,11111222,11111222' 
TCOON,ioos:station:TCOON:003:1,2009-05-03T02:00:00Z,26.8015,-97.4706,0.0,10.6,152.0,11.9,'11111222,11111222,11111222' 
TCOON,ioos:station:TCOON:003:1,2009-05-03T03:00:00Z,26.8015,-97.4706,0.0,11.8,157.0,14.5,'11111222,11111222,11111222' 
TCOON,ioos:station:TCOON:003:1,2009-05-03T04:00:00Z,26.8015,-97.4706,0.0,8.8,185.0,10.6,'11111222,11111222,11111222' 
TCOON,ioos:station:TCOON:003:1,2009-05-03T05:00:00Z,26.8015,-97.4706,0.0,8.2,188.0,9.9,'11111222,11111222,11111222' 
TCOON,ioos:station:TCOON:003:1,2009-05-03T06:00:00Z,26.8015,-97.4706,0.0,9.6,181.0,11.2,'11111222,11111222,11111222' 
TCOON,ioos:station:TCOON:003:1,2009-05-03T07:00:00Z,26.8015,-97.4706,0.0,10.2,179.0,12.3,'11111222,11111222,11111222' 
TCOON,ioos:station:TCOON:003:1,2009-05-03T08:00:00Z,26.8015,-97.4706,0.0,9.4,187.0,11.3,'11111222,11111222,11111222' 
TCOON,ioos:station:TCOON:003:1,2009-05-03T09:00:00Z,26.8015,-97.4706,0.0,12.3,177.0,14.5,'11111222,11111222,11111222' 
TCOON,ioos:station:TCOON:003:1,2009-05-03T10:00:00Z,26.8015,-97.4706,0.0,11.2,178.0,14.0,'11111222,11111222,11111222' 
TCOON,ioos:station:TCOON:003:1,2009-05-03T11:00:00Z,26.8015,-97.4706,0.0,10.7,181.0,12.1,'11111222,11111222,11111222' 
TCOON,ioos:station:TCOON:003:1,2009-05-03T12:00:00Z,26.8015,-97.4706,0.0,10.6,171.0,12.1,'11111222,11111222,11111222' 
TCOON,ioos:station:TCOON:003:1,2009-05-03T13:00:00Z,26.8015,-97.4706,0.0,9.9,174.0,11.6,'11111222,11111222,11111222' 
TCOON,ioos:station:TCOON:003:1,2009-05-03T14:00:00Z,26.8015,-97.4706,0.0,10.2,177.0,11.9,'11111222,11111222,11111222' 
TCOON,ioos:station:TCOON:003:1,2009-05-03T15:00:00Z,26.8015,-97.4706,0.0,9.0,167.0,10.3,'11111222,11111222,11111222' 
TCOON,ioos:station:TCOON:003:1,2009-05-03T16:00:00Z,26.8015,-97.4706,0.0,10.1,161.0,11.6,'11111222,11111222,11111222' 
TCOON,ioos:station:TCOON:003:1,2009-05-03T17:00:00Z,26.8015,-97.4706,0.0,9.0,162.0,10.1,'11111222,11111222,11111222' 
TCOON,ioos:station:TCOON:003:1,2009-05-03T18:00:00Z,26.8015,-97.4706,0.0,8.7,162.0,10.2,'11111222,11111222,11111222' 
TCOON,ioos:station:TCOON:003:1,2009-05-03T19:00:00Z,26.8015,-97.4706,0.0,9.3,167.0,10.3,'11111222,11111222,11111222' 
TCOON,ioos:station:TCOON:003:1,2009-05-03T20:00:00Z,26.8015,-97.4706,0.0,9.4,153.0,11.0,'11111222,11111222,11111222' 
TCOON,ioos:station:TCOON:003:1,2009-05-03T21:00:00Z,26.8015,-97.4706,0.0,9.7,145.0,11.0,'11111222,11111222,11111222' 
TCOON,ioos:station:TCOON:003:1,2009-05-03T22:00:00Z,26.8015,-97.4706,0.0,10.3,149.0,11.9,'11111222,11111222,11111222' 
TCOON,ioos:station:TCOON:003:1,2009-05-03T23:00:00Z,26.8015,-97.4706,0.0,11.4,154.0,12.8,'11111222,11111222,11111222' 
TCOON,ioos:station:TCOON:003:1,2009-05-04T00:00:00Z,26.8015,-97.4706,0.0,11.4,157.0,13.1,'11111222,11111222,11111222' 
TCOON,ioos:station:TCOON:003:1,2009-05-04T01:00:00Z,26.8015,-97.4706,0.0,11.4,158.0,13.2,'11111222,11111222,11111222' 
TCOON,ioos:station:TCOON:003:1,2009-05-04T02:00:00Z,26.8015,-97.4706,0.0,10.0,160.0,11.5,'11111222,11111222,11111222' 
TCOON,ioos:station:TCOON:003:1,2009-05-04T03:00:00Z,26.8015,-97.4706,0.0,10.4,159.0,11.8,'11111222,11111222,11111222' 
TCOON,ioos:station:TCOON:003:1,2009-05-04T04:00:00Z,26.8015,-97.4706,0.0,9.1,161.0,10.5,'11111222,11111222,11111222' 
TCOON,ioos:station:TCOON:003:1,2009-05-04T05:00:00Z,26.8015,-97.4706,0.0,7.9,169.0,9.5,'11111222,11111222,11111222' 
TCOON,ioos:station:TCOON:003:1,2009-05-04T06:00:00Z,26.8015,-97.4706,0.0,5.8,155.0,6.6,'11111222,11111222,11111222' 
TCOON,ioos:station:TCOON:003:1,2009-05-04T07:00:00Z,26.8015,-97.4706,0.0,5.6,149.0,6.4,'11111222,11111222,11111222' 
TCOON,ioos:station:TCOON:003:1,2009-05-04T08:00:00Z,26.8015,-97.4706,0.0,5.9,151.0,6.9,'11111222,11111222,11111222' 
TCOON,ioos:station:TCOON:003:1,2009-05-04T09:00:00Z,26.8015,-97.4706,0.0,5.1,139.0,5.9,'11111222,11111222,11111222' 
TCOON,ioos:station:TCOON:003:1,2009-05-04T10:00:00Z,26.8015,-97.4706,0.0,4.3,137.0,4.8,'11111222,11111222,11111222' 
TCOON,ioos:station:TCOON:003:1,2009-05-04T11:00:00Z,26.8015,-97.4706,0.0,4.4,78.0,5.1,'11111222,11111222,11111222' 
TCOON,ioos:station:TCOON:003:1,2009-05-04T12:00:00Z,26.8015,-97.4706,0.0,5.1,85.0,5.7,'11111222,11111222,11111222' 
TCOON,ioos:station:TCOON:003:1,2009-05-04T13:00:00Z,26.8015,-97.4706,0.0,5.0,86.0,5.8,'11111222,11111222,11111222' 
TCOON,ioos:station:TCOON:003:1,2009-05-04T14:00:00Z,26.8015,-97.4706,0.0,4.7,113.0,5.8,'11111222,11111222,11111222' 
TCOON,ioos:station:TCOON:003:1,2009-05-04T15:00:00Z,26.8015,-97.4706,0.0,5.3,128.0,6.1,'11111222,11111222,11111222' 
TCOON,ioos:station:TCOON:003:1,2009-05-04T16:00:00Z,26.8015,-97.4706,0.0,3.1,118.0,3.9,'11111222,11111222,11111222' 
TCOON,ioos:station:TCOON:003:1,2009-05-04T17:00:00Z,26.8015,-97.4706,0.0,5.1,124.0,6.9,'11111222,11111222,11111222' 
TCOON,ioos:station:TCOON:003:1,2009-05-04T19:00:00Z,26.8015,-97.4706,0.0,3.9,123.0,4.6,'11111222,11111222,11111222' 
TCOON,ioos:station:TCOON:003:1,2009-05-04T20:00:00Z,26.8015,-97.4706,0.0,5.3,125.0,6.3,'11111222,11111222,11111222' 
TCOON,ioos:station:TCOON:003:1,2009-05-04T21:00:00Z,26.8015,-97.4706,0.0,6.2,122.0,7.8,'11111222,11111222,11111222' 
TCOON,ioos:station:TCOON:003:1,2009-05-04T22:00:00Z,26.8015,-97.4706,0.0,6.5,130.0,7.5,'11111222,11111222,11111222' 
TCOON,ioos:station:TCOON:003:1,2009-05-04T23:00:00Z,26.8015,-97.4706,0.0,8.7,129.0,9.6,'11111222,11111222,11111222' 
TCOON,ioos:station:TCOON:003:1,2009-05-05T00:00:00Z,26.8015,-97.4706,0.0,8.2,129.0,9.5,'11111222,11111222,11111222' 
TCOON,ioos:station:TCOON:003:1,2009-05-05T01:00:00Z,26.8015,-97.4706,0.0,8.4,140.0,9.6,'11111222,11111222,11111222' 
TCOON,ioos:station:TCOON:003:1,2009-05-05T02:00:00Z,26.8015,-97.4706,0.0,7.4,149.0,8.4,'11111222,11111222,11111222' 
TCOON,ioos:station:TCOON:003:1,2009-05-05T03:00:00Z,26.8015,-97.4706,0.0,7.4,142.0,8.8,'11111222,11111222,11111222' 
TCOON,ioos:station:TCOON:003:1,2009-05-05T04:00:00Z,26.8015,-97.4706,0.0,7.7,132.0,8.7,'11111222,11111222,11111222' 
TCOON,ioos:station:TCOON:003:1,2009-05-05T05:00:00Z,26.8015,-97.4706,0.0,8.4,142.0,9.9,'11111222,11111222,11111222' 
TCOON,ioos:station:TCOON:003:1,2009-05-05T06:00:00Z,26.8015,-97.4706,0.0,7.2,144.0,8.4,'11111222,11111222,11111222' 
TCOON,ioos:station:TCOON:003:1,2009-05-05T07:00:00Z,26.8015,-97.4706,0.0,6.6,151.0,8.3,'11111222,11111222,11111222' 
TCOON,ioos:station:TCOON:003:1,2009-05-05T08:00:00Z,26.8015,-97.4706,0.0,7.7,152.0,9.8,'11111222,11111222,11111222' 
TCOON,ioos:station:TCOON:003:1,2009-05-05T09:00:00Z,26.8015,-97.4706,0.0,8.7,154.0,10.1,'11111222,11111222,11111222' 
TCOON,ioos:station:TCOON:003:1,2009-05-05T10:00:00Z,26.8015,-97.4706,0.0,10.0,160.0,11.6,'11111222,11111222,11111222' 
TCOON,ioos:station:TCOON:003:1,2009-05-05T11:00:00Z,26.8015,-97.4706,0.0,7.5,153.0,9.4,'11111222,11111222,11111222' 
TCOON,ioos:station:TCOON:003:1,2009-05-05T12:00:00Z,26.8015,-97.4706,0.0,8.8,156.0,9.8,'11111222,11111222,11111222' 
TCOON,ioos:station:TCOON:003:1,2009-05-05T13:00:00Z,26.8015,-97.4706,0.0,9.7,158.0,11.0,'11111222,11111222,11111222' 
TCOON,ioos:station:TCOON:003:1,2009-05-05T14:00:00Z,26.8015,-97.4706,0.0,8.2,169.0,9.5,'11111222,11111222,11111222' 
TCOON,ioos:station:TCOON:003:1,2009-05-05T15:00:00Z,26.8015,-97.4706,0.0,11.1,171.0,12.5,'11111222,11111222,11111222' 
TCOON,ioos:station:TCOON:003:1,2009-05-05T16:00:00Z,26.8015,-97.4706,0.0,11.1,164.0,12.8,'11111222,11111222,11111222' 
TCOON,ioos:station:TCOON:003:1,2009-05-05T17:00:00Z,26.8015,-97.4706,0.0,11.4,166.0,13.0,'11111222,11111222,11111222' 
TCOON,ioos:station:TCOON:003:1,2009-05-05T18:00:00Z,26.8015,-97.4706,0.0,10.9,165.0,12.5,'11111222,11111222,11111222' 
TCOON,ioos:station:TCOON:003:1,2009-05-05T19:00:00Z,26.8015,-97.4706,0.0,11.4,166.0,13.1,'11111222,11111222,11111222' 
TCOON,ioos:station:TCOON:003:1,2009-05-05T20:00:00Z,26.8015,-97.4706,0.0,11.4,161.0,13.3,'11111222,11111222,11111222' 
TCOON,ioos:station:TCOON:003:1,2009-05-05T21:00:00Z,26.8015,-97.4706,0.0,9.8,145.0,11.5,'11111222,11111222,11111222' 
TCOON,ioos:station:TCOON:003:1,2009-05-05T22:00:00Z,26.8015,-97.4706,0.0,10.5,146.0,13.7,'11111222,11111222,11111222' 
TCOON,ioos:station:TCOON:003:1,2009-05-05T23:00:00Z,26.8015,-97.4706,0.0,11.8,156.0,13.4,'11111222,11111222,11111222' 
TCOON,ioos:station:TCOON:003:1,2009-05-06T00:00:00Z,26.8015,-97.4706,0.0,11.2,161.0,12.5,'11111222,11111222,11111222' 
TCOON,ioos:station:TCOON:003:1,2009-05-06T01:00:00Z,26.8015,-97.4706,0.0,10.0,158.0,11.6,'11111222,11111222,11111222' 
TCOON,ioos:station:TCOON:003:1,2009-05-06T02:00:00Z,26.8015,-97.4706,0.0,11.4,160.0,12.9,'11111222,11111222,11111222' 
TCOON,ioos:station:TCOON:003:1,2009-05-06T03:00:00Z,26.8015,-97.4706,0.0,12.3,165.0,13.9,'11111222,11111222,11111222' 
TCOON,ioos:station:TCOON:003:1,2009-05-06T04:00:00Z,26.8015,-97.4706,0.0,12.5,167.0,14.7,'11111222,11111222,11111222' 
TCOON,ioos:station:TCOON:003:1,2009-05-06T05:00:00Z,26.8015,-97.4706,0.0,11.8,165.0,14.3,'11111222,11111222,11111222' 
TCOON,ioos:station:TCOON:003:1,2009-05-06T06:00:00Z,26.8015,-97.4706,0.0,11.1,166.0,13.4,'11111222,11111222,11111222' 
TCOON,ioos:station:TCOON:003:1,2009-05-06T07:00:00Z,26.8015,-97.4706,0.0,11.6,167.0,13.9,'11111222,11111222,11111222' 
TCOON,ioos:station:TCOON:003:1,2009-05-06T08:00:00Z,26.8015,-97.4706,0.0,11.2,169.0,13.4,'11111222,11111222,11111222' 
TCOON,ioos:station:TCOON:003:1,2009-05-06T09:00:00Z,26.8015,-97.4706,0.0,10.5,165.0,11.8,'11111222,11111222,11111222' 
TCOON,ioos:station:TCOON:003:1,2009-05-06T10:00:00Z,26.8015,-97.4706,0.0,11.6,169.0,13.2,'11111222,11111222,11111222' 
TCOON,ioos:station:TCOON:003:1,2009-05-06T11:00:00Z,26.8015,-97.4706,0.0,11.4,166.0,13.6,'11111222,11111222,11111222' 
TCOON,ioos:station:TCOON:003:1,2009-05-06T12:00:00Z,26.8015,-97.4706,0.0,10.9,179.0,13.4,'11111222,11111222,11111222' 
TCOON,ioos:station:TCOON:003:1,2009-05-06T13:00:00Z,26.8015,-97.4706,0.0,9.5,180.0,11.1,'11111222,11111222,11111222' 
TCOON,ioos:station:TCOON:003:1,2009-05-06T14:00:00Z,26.8015,-97.4706,0.0,9.5,175.0,10.7,'11111222,11111222,11111222' 
TCOON,ioos:station:TCOON:003:1,2009-05-06T15:00:00Z,26.8015,-97.4706,0.0,10.1,159.0,11.8,'11111222,11111222,11111222' 
TCOON,ioos:station:TCOON:003:1,2009-05-06T16:00:00Z,26.8015,-97.4706,0.0,10.3,162.0,12.6,'11111222,11111222,11111222' 
TCOON,ioos:station:TCOON:003:1,2009-05-06T17:00:00Z,26.8015,-97.4706,0.0,11.2,161.0,12.7,'11111222,11111222,11111222' 
TCOON,ioos:station:TCOON:003:1,2009-05-06T18:00:00Z,26.8015,-97.4706,0.0,11.3,159.0,13.3,'11111222,11111222,11111222' 
TCOON,ioos:station:TCOON:003:1,2009-05-06T19:00:00Z,26.8015,-97.4706,0.0,11.1,162.0,12.8,'11111222,11111222,11111222' 
TCOON,ioos:station:TCOON:003:1,2009-05-06T20:00:00Z,26.8015,-97.4706,0.0,11.0,150.0,13.5,'11111222,11111222,11111222' 
TCOON,ioos:station:TCOON:003:1,2009-05-06T21:00:00Z,26.8015,-97.4706,0.0,10.8,152.0,12.5,'11111222,11111222,11111222' 
TCOON,ioos:station:TCOON:003:1,2009-05-06T22:00:00Z,26.8015,-97.4706,0.0,11.9,148.0,13.6,'11111222,11111222,11111222' 
TCOON,ioos:station:TCOON:003:1,2009-05-06T23:00:00Z,26.8015,-97.4706,0.0,11.0,150.0,13.1,'11111222,11111222,11111222' 
TCOON,ioos:station:TCOON:003:1,2009-05-07T00:00:00Z,26.8015,-97.4706,0.0,9.9,153.0,11.7,'11111222,11111222,11111222' 
TCOON,ioos:station:TCOON:003:1,2009-05-07T01:00:00Z,26.8015,-97.4706,0.0,10.0,156.0,11.1,'11111222,11111222,11111222' 
TCOON,ioos:station:TCOON:003:1,2009-05-07T02:00:00Z,26.8015,-97.4706,0.0,8.8,156.0,10.3,'11111222,11111222,11111222' 
TCOON,ioos:station:TCOON:003:1,2009-05-07T03:00:00Z,26.8015,-97.4706,0.0,8.1,162.0,9.5,'11111222,11111222,11111222' 
TCOON,ioos:station:TCOON:003:1,2009-05-07T04:00:00Z,26.8015,-97.4706,0.0,10.4,162.0,11.9,'11111222,11111222,11111222' 
TCOON,ioos:station:TCOON:003:1,2009-05-07T05:00:00Z,26.8015,-97.4706,0.0,10.5,157.0,12.3,'11111222,11111222,11111222' 
TCOON,ioos:station:TCOON:003:1,2009-05-07T06:00:00Z,26.8015,-97.4706,0.0,9.4,158.0,10.5,'11111222,11111222,11111222' 
TCOON,ioos:station:TCOON:003:1,2009-05-07T07:00:00Z,26.8015,-97.4706,0.0,10.2,163.0,11.3,'11111222,11111222,11111222' 
TCOON,ioos:station:TCOON:003:1,2009-05-07T08:00:00Z,26.8015,-97.4706,0.0,10.4,162.0,12.5,'11111222,11111222,11111222' 
TCOON,ioos:station:TCOON:003:1,2009-05-07T09:00:00Z,26.8015,-97.4706,0.0,10.0,159.0,11.9,'11111222,11111222,11111222' 
TCOON,ioos:station:TCOON:003:1,2009-05-07T10:00:00Z,26.8015,-97.4706,0.0,8.4,158.0,10.1,'11111222,11111222,11111222' 
TCOON,ioos:station:TCOON:003:1,2009-05-07T11:00:00Z,26.8015,-97.4706,0.0,9.1,158.0,10.9,'11111222,11111222,11111222' 
TCOON,ioos:station:TCOON:003:1,2009-05-07T12:00:00Z,26.8015,-97.4706,0.0,9.0,164.0,10.3,'11111222,11111222,11111222' 
TCOON,ioos:station:TCOON:003:1,2009-05-07T13:00:00Z,26.8015,-97.4706,0.0,7.9,162.0,8.9,'11111222,11111222,11111222' 
TCOON,ioos:station:TCOON:003:1,2009-05-07T14:00:00Z,26.8015,-97.4706,0.0,10.1,169.0,10.9,'11111222,11111222,11111222' 
TCOON,ioos:station:TCOON:003:1,2009-05-07T15:00:00Z,26.8015,-97.4706,0.0,9.7,168.0,11.8,'11111222,11111222,11111222' 
TCOON,ioos:station:TCOON:003:1,2009-05-07T16:00:00Z,26.8015,-97.4706,0.0,10.2,163.0,12.0,'11111222,11111222,11111222' 
TCOON,ioos:station:TCOON:003:1,2009-05-07T17:00:00Z,26.8015,-97.4706,0.0,9.6,163.0,11.2,'11111222,11111222,11111222' 
TCOON,ioos:station:TCOON:003:1,2009-05-07T18:00:00Z,26.8015,-97.4706,0.0,10.2,160.0,12.4,'11111222,11111222,11111222' 
TCOON,ioos:station:TCOON:003:1,2009-05-07T19:00:00Z,26.8015,-97.4706,0.0,9.6,150.0,11.0,'11111222,11111222,11111222' 
TCOON,ioos:station:TCOON:003:1,2009-05-07T20:00:00Z,26.8015,-97.4706,0.0,11.0,149.0,13.7,'11111222,11111222,11111222' 
TCOON,ioos:station:TCOON:003:1,2009-05-07T21:00:00Z,26.8015,-97.4706,0.0,11.5,154.0,13.1,'11111222,11111222,11111222' 
TCOON,ioos:station:TCOON:003:1,2009-05-07T22:00:00Z,26.8015,-97.4706,0.0,11.2,146.0,12.8,'11111222,11111222,11111222' 
TCOON,ioos:station:TCOON:003:1,2009-05-07T23:00:00Z,26.8015,-97.4706,0.0,9.6,148.0,11.2,'11111222,11111222,11111222' 
TCOON,ioos:station:TCOON:003:1,2009-05-08T00:00:00Z,26.8015,-97.4706,0.0,10.6,150.0,12.0,'11111222,11111222,11111222' 
TCOON,ioos:station:TCOON:003:1,2009-05-08T01:00:00Z,26.8015,-97.4706,0.0,9.3,153.0,11.4,'11111222,11111222,11111222' 
TCOON,ioos:station:TCOON:003:1,2009-05-08T02:00:00Z,26.8015,-97.4706,0.0,9.4,151.0,11.0,'11111222,11111222,11111222' 
TCOON,ioos:station:TCOON:003:1,2009-05-08T03:00:00Z,26.8015,-97.4706,0.0,9.8,153.0,11.5,'11111222,11111222,11111222' 
TCOON,ioos:station:TCOON:003:1,2009-05-08T04:00:00Z,26.8015,-97.4706,0.0,10.2,156.0,11.7,'11111222,11111222,11111222' 
TCOON,ioos:station:TCOON:003:1,2009-05-08T05:00:00Z,26.8015,-97.4706,0.0,10.6,167.0,12.6,'11111222,11111222,11111222' 
TCOON,ioos:station:TCOON:003:1,2009-05-08T06:00:00Z,26.8015,-97.4706,0.0,12.2,165.0,14.1,'11111222,11111222,11111222' 
TCOON,ioos:station:TCOON:003:1,2009-05-08T07:00:00Z,26.8015,-97.4706,0.0,11.0,173.0,13.1,'11111222,11111222,11111222' 
TCOON,ioos:station:TCOON:003:1,2009-05-08T08:00:00Z,26.8015,-97.4706,0.0,11.5,182.0,14.1,'11111222,11111222,11111222' 
TCOON,ioos:station:TCOON:003:1,2009-05-08T09:00:00Z,26.8015,-97.4706,0.0,12.0,177.0,14.2,'11111222,11111222,11111222' 
TCOON,ioos:station:TCOON:003:1,2009-05-08T10:00:00Z,26.8015,-97.4706,0.0,11.3,181.0,13.1,'11111222,11111222,11111222' 
TCOON,ioos:station:TCOON:003:1,2009-05-08T11:00:00Z,26.8015,-97.4706,0.0,12.0,183.0,14.6,'11111222,11111222,11111222' 
TCOON,ioos:station:TCOON:003:1,2009-05-08T12:00:00Z,26.8015,-97.4706,0.0,10.9,180.0,12.3,'11111222,11111222,11111222' 
TCOON,ioos:station:TCOON:003:1,2009-05-08T13:00:00Z,26.8015,-97.4706,0.0,11.8,173.0,13.3,'11111222,11111222,11111222' 
TCOON,ioos:station:TCOON:003:1,2009-05-08T14:00:00Z,26.8015,-97.4706,0.0,11.3,169.0,13.0,'11111222,11111222,11111222' 
TCOON,ioos:station:TCOON:003:1,2009-05-08T15:00:00Z,26.8015,-97.4706,0.0,12.4,165.0,14.9,'11111222,11111222,11111222' 
TCOON,ioos:station:TCOON:003:1,2009-05-08T16:00:00Z,26.8015,-97.4706,0.0,11.9,162.0,14.3,'11111222,11111222,11111222' 
TCOON,ioos:station:TCOON:003:1,2009-05-08T17:00:00Z,26.8015,-97.4706,0.0,11.4,161.0,13.4,'11111222,11111222,11111222' 
TCOON,ioos:station:TCOON:003:1,2009-05-08T18:00:00Z,26.8015,-97.4706,0.0,12.4,163.0,15.0,'11111222,11111222,11111222' 
TCOON,ioos:station:TCOON:003:1,2009-05-08T19:00:00Z,26.8015,-97.4706,0.0,12.7,160.0,14.6,'11111222,11111222,11111222' 
TCOON,ioos:station:TCOON:003:1,2009-05-08T20:00:00Z,26.8015,-97.4706,0.0,13.3,162.0,14.9,'11111222,11111222,11111222' 
TCOON,ioos:station:TCOON:003:1,2009-05-08T21:00:00Z,26.8015,-97.4706,0.0,14.8,164.0,16.7,'11111222,11111222,11111222' 
TCOON,ioos:station:TCOON:003:1,2009-05-08T22:00:00Z,26.8015,-97.4706,0.0,11.6,162.0,14.2,'11111222,11111222,11111222' 
TCOON,ioos:station:TCOON:003:1,2009-05-08T23:00:00Z,26.8015,-97.4706,0.0,11.8,162.0,13.8,'11111222,11111222,11111222' 
TCOON,ioos:station:TCOON:003:1,2009-05-09T00:00:00Z,26.8015,-97.4706,0.0,11.6,160.0,13.5,'11111222,11111222,11111222' 
TCOON,ioos:station:TCOON:003:1,2009-05-09T01:00:00Z,26.8015,-97.4706,0.0,11.0,162.0,12.7,'11111222,11111222,11111222' 
TCOON,ioos:station:TCOON:003:1,2009-05-09T02:00:00Z,26.8015,-97.4706,0.0,10.6,163.0,12.6,'11111222,11111222,11111222' 
TCOON,ioos:station:TCOON:003:1,2009-05-09T03:00:00Z,26.8015,-97.4706,0.0,10.7,166.0,12.6,'11111222,11111222,11111222' 
TCOON,ioos:station:TCOON:003:1,2009-05-09T04:00:00Z,26.8015,-97.4706,0.0,11.9,166.0,13.7,'11111222,11111222,11111222' 
TCOON,ioos:station:TCOON:003:1,2009-05-09T05:00:00Z,26.8015,-97.4706,0.0,11.0,163.0,12.9,'11111222,11111222,11111222' 
TCOON,ioos:station:TCOON:003:1,2009-05-09T06:00:00Z,26.8015,-97.4706,0.0,11.2,178.0,13.8,'11111222,11111222,11111222' 
TCOON,ioos:station:TCOON:003:1,2009-05-09T07:00:00Z,26.8015,-97.4706,0.0,10.7,175.0,12.4,'11111222,11111222,11111222' 
TCOON,ioos:station:TCOON:003:1,2009-05-09T08:00:00Z,26.8015,-97.4706,0.0,7.3,200.0,8.5,'11111222,11111222,11111222' 
TCOON,ioos:station:TCOON:003:1,2009-05-09T09:00:00Z,26.8015,-97.4706,0.0,8.6,182.0,9.7,'11111222,11111222,11111222' 
TCOON,ioos:station:TCOON:003:1,2009-05-09T10:00:00Z,26.8015,-97.4706,0.0,11.9,170.0,13.4,'11111222,11111222,11111222' 